TV
NORAD ID: 29648
Int'l Code: 2006-056A
Perigee: 35,782.8 km
Apogee: 35,804.1 km
Inclination: 0.1 °
Period: 1,436.1 minutes
Semi major axis: 42164 km
Launch date: December 11, 2006
Source: Malaysia (MALA)
Comments: MEASat 3 is a Malaysian geostationary communications spacecraft. The 4.9 tonne (with fuel), 10.8 kW craft carries 24 C-band and 24 Ku-band transponders to provide direct-to-home reception of voice, video and internet services to about 100 countries between 50° E and 150° E, on either side of the equator after parking over 91.5° E longitude.
Two Line Element Set (TLE):
1 29648U 06056A 13135.79092698 -.00000244 00000-0 10000-3 0 119
2 29648 000.0560 091.5472 0002518 356.9583 161.4165 01.00272892 23634
Source: AFSPC
NASA's NSSDC Master Catalog entry for MEASAT 3